Year,Month,Day,Hour,Minute,Value (Times are PST for temperature in C)
2016,08,27,00,00,22.80
2016,08,27,00,01,22.80
2016,08,27,00,02,22.80
2016,08,27,00,03,22.80
2016,08,27,00,04,22.80
2016,08,27,00,05,22.80
2016,08,27,00,06,22.80
2016,08,27,00,07,22.80
2016,08,27,00,08,22.80
2016,08,27,00,09,22.80
2016,08,27,00,10,22.80
2016,08,27,00,11,22.80
2016,08,27,00,12,22.80
2016,08,27,00,13,22.80
2016,08,27,00,14,22.80
2016,08,27,00,15,22.80
2016,08,27,00,16,22.80
2016,08,27,00,17,22.80
2016,08,27,00,18,22.80
2016,08,27,00,19,22.80
2016,08,27,00,20,22.80
2016,08,27,00,21,22.70
2016,08,27,00,22,22.70
2016,08,27,00,23,22.60
2016,08,27,00,24,22.50
2016,08,27,00,25,22.50
2016,08,27,00,26,22.40
2016,08,27,00,27,22.30
2016,08,27,00,28,22.20
2016,08,27,00,29,22.20
2016,08,27,00,30,22.10
2016,08,27,00,31,22.10
2016,08,27,00,32,22.00
2016,08,27,00,33,22.00
2016,08,27,00,34,21.90
2016,08,27,00,35,21.90
2016,08,27,00,36,21.90
2016,08,27,00,37,21.80
2016,08,27,00,38,21.80
2016,08,27,00,39,21.80
2016,08,27,00,40,21.70
2016,08,27,00,41,21.70
2016,08,27,00,42,21.60
2016,08,27,00,43,21.50
2016,08,27,00,44,21.50
2016,08,27,00,45,21.40
2016,08,27,00,46,21.30
2016,08,27,00,47,21.30
2016,08,27,00,48,21.20
2016,08,27,00,49,21.10
2016,08,27,00,50,21.10
2016,08,27,00,51,21.00
2016,08,27,00,52,20.90
2016,08,27,00,53,20.90
2016,08,27,00,54,20.80
2016,08,27,00,55,20.80
2016,08,27,00,56,20.70
2016,08,27,00,57,20.60
2016,08,27,00,58,20.60
2016,08,27,00,59,20.50
2016,08,27,01,00,20.50
2016,08,27,01,01,20.40
2016,08,27,01,02,20.40
2016,08,27,01,03,20.30
2016,08,27,01,04,20.30
2016,08,27,01,05,20.30
2016,08,27,01,06,20.20
2016,08,27,01,07,20.20
2016,08,27,01,08,20.10
2016,08,27,01,09,20.00
2016,08,27,01,10,20.00
2016,08,27,01,11,19.90
2016,08,27,01,12,19.90
2016,08,27,01,13,19.80
2016,08,27,01,14,19.70
2016,08,27,01,15,19.70
2016,08,27,01,16,19.60
2016,08,27,01,17,19.60
2016,08,27,01,18,19.50
2016,08,27,01,19,19.40
2016,08,27,01,20,19.40
2016,08,27,01,21,19.30
2016,08,27,01,22,19.30
2016,08,27,01,23,19.20
2016,08,27,01,24,19.20
2016,08,27,01,25,19.20
2016,08,27,01,26,19.10
2016,08,27,01,27,19.00
2016,08,27,01,28,19.00
2016,08,27,01,29,18.90
2016,08,27,01,30,18.90
2016,08,27,01,31,18.90
2016,08,27,01,32,18.80
2016,08,27,01,33,18.80
2016,08,27,01,34,18.70
2016,08,27,01,35,18.70
2016,08,27,01,36,18.70
2016,08,27,01,37,18.60
2016,08,27,01,38,18.60
2016,08,27,01,39,18.60
2016,08,27,01,40,18.50
2016,08,27,01,41,18.40
2016,08,27,01,42,18.40
2016,08,27,01,43,18.30
2016,08,27,01,44,18.30
2016,08,27,01,45,18.20
2016,08,27,01,46,18.20
2016,08,27,01,47,18.10
2016,08,27,01,48,18.10
2016,08,27,01,49,18.00
2016,08,27,01,50,18.00
2016,08,27,01,51,18.00
2016,08,27,01,52,17.90
2016,08,27,01,53,17.90
2016,08,27,01,54,17.90
2016,08,27,01,55,17.80
2016,08,27,01,56,17.80
2016,08,27,01,57,17.80
2016,08,27,01,58,17.80
2016,08,27,01,59,17.80
2016,08,27,02,00,17.70
2016,08,27,02,01,17.70
2016,08,27,02,02,17.70
2016,08,27,02,03,17.60
2016,08,27,02,04,17.60
2016,08,27,02,05,17.60
2016,08,27,02,06,17.60
2016,08,27,02,07,17.60
2016,08,27,02,08,17.50
2016,08,27,02,09,17.50
2016,08,27,02,10,17.50
2016,08,27,02,11,17.40
2016,08,27,02,12,17.40
2016,08,27,02,13,17.40
2016,08,27,02,14,17.40
2016,08,27,02,15,17.40
2016,08,27,02,16,17.40
2016,08,27,02,17,17.40
2016,08,27,02,18,17.40
2016,08,27,02,19,17.30
2016,08,27,02,20,17.30
2016,08,27,02,21,17.30
2016,08,27,02,22,17.30
2016,08,27,02,23,17.30
2016,08,27,02,24,17.30
2016,08,27,02,25,17.30
2016,08,27,02,26,17.30
2016,08,27,02,27,17.20
2016,08,27,02,28,17.20
2016,08,27,02,29,17.20
2016,08,27,02,30,17.10
2016,08,27,02,31,17.10
2016,08,27,02,32,17.10
2016,08,27,02,33,17.00
2016,08,27,02,34,17.00
2016,08,27,02,35,17.00
2016,08,27,02,36,16.90
2016,08,27,02,37,16.90
2016,08,27,02,38,16.90
2016,08,27,02,39,16.90
2016,08,27,02,40,16.90
2016,08,27,02,41,16.80
2016,08,27,02,42,16.80
2016,08,27,02,43,16.80
2016,08,27,02,44,16.80
2016,08,27,02,45,16.80
2016,08,27,02,46,16.80
2016,08,27,02,47,16.80
2016,08,27,02,48,16.80
2016,08,27,02,49,16.90
2016,08,27,02,50,16.90
2016,08,27,02,51,16.90
2016,08,27,02,52,16.90
2016,08,27,02,53,17.00
2016,08,27,02,54,17.00
2016,08,27,02,55,17.00
2016,08,27,02,56,17.10
2016,08,27,02,57,17.10
2016,08,27,02,58,17.10
2016,08,27,02,59,17.10
2016,08,27,03,00,17.00
2016,08,27,03,01,17.00
2016,08,27,03,02,16.90
2016,08,27,03,03,16.80
2016,08,27,03,04,16.80
2016,08,27,03,05,16.70
2016,08,27,03,06,16.60
2016,08,27,03,07,16.50
2016,08,27,03,08,16.40
2016,08,27,03,09,16.40
2016,08,27,03,10,16.30
2016,08,27,03,11,16.20
2016,08,27,03,12,16.10
2016,08,27,03,13,16.00
2016,08,27,03,14,15.90
2016,08,27,03,15,15.80
2016,08,27,03,16,15.70
2016,08,27,03,17,15.60
2016,08,27,03,18,15.50
2016,08,27,03,19,15.40
2016,08,27,03,20,15.30
2016,08,27,03,21,15.20
2016,08,27,03,22,15.00
2016,08,27,03,23,15.00
2016,08,27,03,24,15.00
2016,08,27,03,25,15.00
2016,08,27,03,26,15.00
2016,08,27,03,27,14.80
2016,08,27,03,28,14.80
2016,08,27,03,29,14.70
2016,08,27,03,30,14.60
2016,08,27,03,31,14.50
2016,08,27,03,32,14.50
2016,08,27,03,33,14.40
2016,08,27,03,34,14.30
2016,08,27,03,35,14.20
2016,08,27,03,36,14.10
2016,08,27,03,37,14.10
2016,08,27,03,38,14.00
2016,08,27,03,39,14.00
2016,08,27,03,40,13.90
2016,08,27,03,41,13.90
2016,08,27,03,42,13.90
2016,08,27,03,43,13.80
2016,08,27,03,44,13.80
2016,08,27,03,45,13.80
2016,08,27,03,46,13.80
2016,08,27,03,47,13.80
2016,08,27,03,48,13.70
2016,08,27,03,49,13.70
2016,08,27,03,50,13.70
2016,08,27,03,51,13.70
2016,08,27,03,52,13.70
2016,08,27,03,53,13.70
2016,08,27,03,54,13.70
2016,08,27,03,55,13.60
2016,08,27,03,56,13.60
2016,08,27,03,57,13.60
2016,08,27,03,58,13.60
2016,08,27,03,59,13.60
2016,08,27,04,00,13.60
2016,08,27,04,01,13.60
2016,08,27,04,02,13.60
2016,08,27,04,03,13.50
2016,08,27,04,04,13.50
2016,08,27,04,05,13.50
2016,08,27,04,06,13.50
2016,08,27,04,07,13.50
2016,08,27,04,08,13.50
2016,08,27,04,09,13.50
2016,08,27,04,10,13.50
2016,08,27,04,11,13.50
2016,08,27,04,12,13.50
2016,08,27,04,13,13.50
2016,08,27,04,14,13.50
2016,08,27,04,15,13.40
2016,08,27,04,16,13.50
2016,08,27,04,17,13.50
2016,08,27,04,18,13.50
2016,08,27,04,19,13.50
2016,08,27,04,20,13.50
2016,08,27,04,21,13.50
2016,08,27,04,22,13.60
2016,08,27,04,23,13.60
2016,08,27,04,24,13.60
2016,08,27,04,25,13.60
2016,08,27,04,26,13.60
2016,08,27,04,27,13.70
2016,08,27,04,28,13.70
2016,08,27,04,29,13.70
2016,08,27,04,30,13.70
2016,08,27,04,31,13.70
2016,08,27,04,32,13.70
2016,08,27,04,33,13.70
2016,08,27,04,34,13.70
2016,08,27,04,35,13.70
2016,08,27,04,36,13.80
2016,08,27,04,37,13.70
2016,08,27,04,38,13.70
2016,08,27,04,39,13.70
2016,08,27,04,40,13.70
2016,08,27,04,41,13.70
2016,08,27,04,42,13.70
2016,08,27,04,43,13.70
2016,08,27,04,44,13.70
2016,08,27,04,45,13.70
2016,08,27,04,46,13.70
2016,08,27,04,47,13.70
2016,08,27,04,48,13.70
2016,08,27,04,49,13.70
2016,08,27,04,50,13.70
2016,08,27,04,51,13.70
2016,08,27,04,52,13.70
2016,08,27,04,53,13.70
2016,08,27,04,54,13.70
2016,08,27,04,55,13.70
2016,08,27,04,56,13.70
2016,08,27,04,57,13.70
2016,08,27,04,58,13.70
2016,08,27,04,59,13.70
2016,08,27,05,00,13.70
2016,08,27,05,01,13.80
2016,08,27,05,02,13.80
2016,08,27,05,03,13.80
2016,08,27,05,04,13.80
2016,08,27,05,05,13.80
2016,08,27,05,06,13.80
2016,08,27,05,07,13.80
2016,08,27,05,08,13.80
2016,08,27,05,09,13.80
2016,08,27,05,10,13.80
2016,08,27,05,11,13.80
2016,08,27,05,12,13.90
2016,08,27,05,13,13.90
2016,08,27,05,14,14.00
2016,08,27,05,15,14.00
2016,08,27,05,16,14.00
2016,08,27,05,17,14.10
2016,08,27,05,18,14.10
2016,08,27,05,19,14.10
2016,08,27,05,20,14.10
2016,08,27,05,21,14.10
2016,08,27,05,22,14.20
2016,08,27,05,23,14.20
2016,08,27,05,24,14.20
2016,08,27,05,25,14.20
2016,08,27,05,26,14.20
2016,08,27,05,27,14.10
2016,08,27,05,28,14.10
2016,08,27,05,29,14.10
2016,08,27,05,30,14.10
2016,08,27,05,31,14.10
2016,08,27,05,32,14.10
2016,08,27,05,33,14.10
2016,08,27,05,34,14.10
2016,08,27,05,35,14.10
2016,08,27,05,36,14.10
2016,08,27,05,37,14.10
2016,08,27,05,38,14.10
2016,08,27,05,39,14.00
2016,08,27,05,40,14.00
2016,08,27,05,41,14.00
2016,08,27,05,42,14.00
2016,08,27,05,43,14.00
2016,08,27,05,44,14.00
2016,08,27,05,45,13.90
2016,08,27,05,46,13.90
2016,08,27,05,47,13.90
2016,08,27,05,48,13.90
2016,08,27,05,49,13.90
2016,08,27,05,50,13.90
2016,08,27,05,51,13.90
2016,08,27,05,52,13.80
2016,08,27,05,53,13.80
2016,08,27,05,54,13.80
2016,08,27,05,55,13.80
2016,08,27,05,56,13.80
2016,08,27,05,57,13.80
2016,08,27,05,58,13.70
2016,08,27,05,59,13.70
2016,08,27,06,00,13.70
2016,08,27,06,01,13.70
2016,08,27,06,02,13.70
2016,08,27,06,03,13.70
2016,08,27,06,04,13.70
2016,08,27,06,05,13.70
2016,08,27,06,06,13.70
2016,08,27,06,07,13.70
2016,08,27,06,08,13.70
2016,08,27,06,09,13.70
2016,08,27,06,10,13.80
2016,08,27,06,11,13.80
2016,08,27,06,12,13.90
2016,08,27,06,13,14.00
2016,08,27,06,14,14.10
2016,08,27,06,15,14.30
2016,08,27,06,16,14.50
2016,08,27,06,17,14.60
2016,08,27,06,18,14.80
2016,08,27,06,19,14.90
2016,08,27,06,20,15.00
2016,08,27,06,21,15.00
2016,08,27,06,22,15.00
2016,08,27,06,23,15.20
2016,08,27,06,24,15.40
2016,08,27,06,25,15.40
2016,08,27,06,26,15.50
2016,08,27,06,27,15.60
2016,08,27,06,28,15.70
2016,08,27,06,29,15.80
2016,08,27,06,30,15.90
2016,08,27,06,31,16.00
2016,08,27,06,32,16.10
2016,08,27,06,33,16.20
2016,08,27,06,34,16.30
2016,08,27,06,35,16.50
2016,08,27,06,36,16.60
2016,08,27,06,37,16.70
2016,08,27,06,38,16.80
2016,08,27,06,39,16.90
2016,08,27,06,40,17.00
2016,08,27,06,41,17.10
2016,08,27,06,42,17.10
2016,08,27,06,43,17.20
2016,08,27,06,44,17.20
2016,08,27,06,45,17.30
2016,08,27,06,46,17.30
2016,08,27,06,47,17.40
2016,08,27,06,48,17.50
2016,08,27,06,49,17.50
2016,08,27,06,50,17.60
2016,08,27,06,51,17.70
2016,08,27,06,52,17.70
2016,08,27,06,53,17.80
2016,08,27,06,54,17.80
2016,08,27,06,55,17.80
2016,08,27,06,56,17.90
2016,08,27,06,57,17.90
2016,08,27,06,58,17.90
2016,08,27,06,59,17.90
2016,08,27,07,00,17.90
2016,08,27,07,01,17.90
2016,08,27,07,02,17.90
2016,08,27,07,03,17.80
2016,08,27,07,04,17.80
2016,08,27,07,05,17.80
2016,08,27,07,06,17.80
2016,08,27,07,07,17.80
2016,08,27,07,08,17.80
2016,08,27,07,09,17.80
2016,08,27,07,10,17.80
2016,08,27,07,11,17.80
2016,08,27,07,12,17.80
2016,08,27,07,13,17.80
2016,08,27,07,14,17.80
2016,08,27,07,15,17.80
2016,08,27,07,16,17.80
2016,08,27,07,17,17.80
2016,08,27,07,18,17.70
2016,08,27,07,19,17.70
2016,08,27,07,20,17.70
2016,08,27,07,21,17.70
2016,08,27,07,22,17.70
2016,08,27,07,23,17.60
2016,08,27,07,24,17.60
2016,08,27,07,25,17.60
2016,08,27,07,26,17.60
2016,08,27,07,27,17.60
2016,08,27,07,28,17.60
2016,08,27,07,29,17.50
2016,08,27,07,30,17.50
2016,08,27,07,31,17.50
2016,08,27,07,32,17.60
2016,08,27,07,33,17.60
2016,08,27,07,34,17.60
2016,08,27,07,35,17.60
2016,08,27,07,36,17.60
2016,08,27,07,37,17.60
2016,08,27,07,38,17.60
2016,08,27,07,39,17.60
2016,08,27,07,40,17.60
2016,08,27,07,41,17.60
2016,08,27,07,42,17.60
2016,08,27,07,43,17.60
2016,08,27,07,44,17.70
2016,08,27,07,45,17.70
2016,08,27,07,46,17.70
2016,08,27,07,47,17.80
2016,08,27,07,48,17.80
2016,08,27,07,49,17.80
2016,08,27,07,50,17.90
2016,08,27,07,51,17.90
2016,08,27,07,52,18.00
2016,08,27,07,53,18.00
2016,08,27,07,54,18.00
2016,08,27,07,55,18.00
2016,08,27,07,56,18.10
2016,08,27,07,57,18.10
2016,08,27,07,58,18.20
2016,08,27,07,59,18.20
2016,08,27,08,00,18.30
2016,08,27,08,01,18.30
2016,08,27,08,02,18.40
2016,08,27,08,03,18.40
2016,08,27,08,04,18.40
2016,08,27,08,05,18.40
2016,08,27,08,06,18.40
2016,08,27,08,07,18.40
2016,08,27,08,08,18.50
2016,08,27,08,09,18.40
2016,08,27,08,10,18.50
2016,08,27,08,11,18.50
2016,08,27,08,12,18.60
2016,08,27,08,13,18.60
2016,08,27,08,14,18.60
2016,08,27,08,15,18.60
2016,08,27,08,16,18.60
2016,08,27,08,17,18.70
2016,08,27,08,18,18.70
2016,08,27,08,19,18.70
2016,08,27,08,20,18.70
2016,08,27,08,21,18.70
2016,08,27,08,22,18.80
2016,08,27,08,23,18.80
2016,08,27,08,24,18.90
2016,08,27,08,25,18.90
2016,08,27,08,26,18.90
2016,08,27,08,27,18.90
2016,08,27,08,28,18.90
2016,08,27,08,29,18.90
2016,08,27,08,30,18.90
2016,08,27,08,31,18.90
2016,08,27,08,32,18.90
2016,08,27,08,33,18.90
2016,08,27,08,34,18.90
2016,08,27,08,35,18.90
2016,08,27,08,36,18.80
2016,08,27,08,37,18.80
2016,08,27,08,38,18.80
2016,08,27,08,39,18.80
2016,08,27,08,40,18.80
2016,08,27,08,41,18.70
2016,08,27,08,42,18.80
2016,08,27,08,43,18.70
2016,08,27,08,44,18.70
2016,08,27,08,45,18.70
2016,08,27,08,46,18.70
2016,08,27,08,47,18.70
2016,08,27,08,48,18.70
2016,08,27,08,49,18.60
2016,08,27,08,50,18.60
2016,08,27,08,51,18.60
2016,08,27,08,52,18.60
2016,08,27,08,53,18.60
2016,08,27,08,54,18.70
2016,08,27,08,55,18.70
2016,08,27,08,56,18.70
2016,08,27,08,57,18.60
2016,08,27,08,58,18.60
2016,08,27,08,59,18.70
2016,08,27,09,00,18.70
2016,08,27,09,01,18.70
2016,08,27,09,02,18.70
2016,08,27,09,03,18.70
2016,08,27,09,04,18.70
2016,08,27,09,05,18.70
2016,08,27,09,06,18.70
2016,08,27,09,07,18.70
2016,08,27,09,08,18.70
2016,08,27,09,09,18.80
2016,08,27,09,10,18.80
2016,08,27,09,11,18.80
2016,08,27,09,12,18.80
2016,08,27,09,13,18.90
2016,08,27,09,14,18.90
2016,08,27,09,15,18.90
2016,08,27,09,16,18.90
2016,08,27,09,17,19.00
2016,08,27,09,18,19.00
2016,08,27,09,19,19.10
2016,08,27,09,20,19.10
2016,08,27,09,21,19.10
2016,08,27,09,22,19.10
2016,08,27,09,23,19.10
2016,08,27,09,24,19.20
2016,08,27,09,25,19.20
2016,08,27,09,26,19.20
2016,08,27,09,27,19.20
2016,08,27,09,28,19.10
2016,08,27,09,29,19.10
2016,08,27,09,30,19.00
2016,08,27,09,31,19.00
2016,08,27,09,32,18.90
2016,08,27,09,33,18.90
2016,08,27,09,34,18.90
2016,08,27,09,35,18.90
2016,08,27,09,36,18.90
2016,08,27,09,37,18.90
2016,08,27,09,38,18.80
2016,08,27,09,39,18.80
2016,08,27,09,40,18.70
2016,08,27,09,41,18.70
2016,08,27,09,42,18.70
2016,08,27,09,43,18.70
2016,08,27,09,44,18.70
2016,08,27,09,45,18.70
2016,08,27,09,46,18.80
2016,08,27,09,47,18.80
2016,08,27,09,48,18.80
2016,08,27,09,49,18.80
2016,08,27,09,50,18.80
2016,08,27,09,51,18.80
2016,08,27,09,52,18.90
2016,08,27,09,53,18.90
2016,08,27,09,54,18.90
2016,08,27,09,55,19.00
2016,08,27,09,56,19.00
2016,08,27,09,57,19.10
2016,08,27,09,58,19.10
2016,08,27,09,59,19.20
2016,08,27,10,00,19.30
2016,08,27,10,01,19.40
2016,08,27,10,02,19.50
2016,08,27,10,03,19.50
2016,08,27,10,04,19.60
2016,08,27,10,05,19.60
2016,08,27,10,06,19.50
2016,08,27,10,07,19.50
2016,08,27,10,08,19.40
2016,08,27,10,09,19.30
2016,08,27,10,10,19.20
2016,08,27,10,11,19.20
2016,08,27,10,12,19.10
2016,08,27,10,13,19.10
2016,08,27,10,14,19.10
2016,08,27,10,15,19.10
2016,08,27,10,16,19.10
2016,08,27,10,17,19.10
2016,08,27,10,18,19.00
2016,08,27,10,19,19.00
2016,08,27,10,20,19.00
2016,08,27,10,21,18.90
2016,08,27,10,22,18.90
2016,08,27,10,23,18.90
2016,08,27,10,24,18.90
2016,08,27,10,25,18.90
2016,08,27,10,26,18.90
2016,08,27,10,27,18.90
2016,08,27,10,28,18.80
2016,08,27,10,29,18.80
2016,08,27,10,30,18.80
2016,08,27,10,31,18.80
2016,08,27,10,32,18.90
2016,08,27,10,33,18.90
2016,08,27,10,34,18.90
2016,08,27,10,35,18.90
2016,08,27,10,36,18.90
2016,08,27,10,37,18.90
2016,08,27,10,38,18.90
2016,08,27,10,39,18.90
2016,08,27,10,40,18.90
2016,08,27,10,41,18.90
2016,08,27,10,42,18.90
2016,08,27,10,43,18.90
2016,08,27,10,44,18.90
2016,08,27,10,45,18.90
2016,08,27,10,46,18.90
2016,08,27,10,47,18.90
2016,08,27,10,48,18.90
2016,08,27,10,49,18.90
2016,08,27,10,50,18.80
2016,08,27,10,51,18.90
2016,08,27,10,52,18.90
2016,08,27,10,53,19.00
2016,08,27,10,54,19.10
2016,08,27,10,55,19.20
2016,08,27,10,56,19.20
2016,08,27,10,57,19.30
2016,08,27,10,58,19.40
2016,08,27,10,59,19.40
2016,08,27,11,00,19.50
2016,08,27,11,01,19.50
2016,08,27,11,02,19.50
2016,08,27,11,03,19.50
2016,08,27,11,04,19.50
2016,08,27,11,05,19.60
2016,08,27,11,06,19.60
2016,08,27,11,07,19.60
2016,08,27,11,08,19.70
2016,08,27,11,09,19.80
2016,08,27,11,10,19.80
2016,08,27,11,11,19.90
2016,08,27,11,12,19.90
2016,08,27,11,13,19.90
2016,08,27,11,14,19.90
2016,08,27,11,15,19.90
2016,08,27,11,16,19.90
2016,08,27,11,17,20.00
2016,08,27,11,18,19.90
2016,08,27,11,19,19.90
2016,08,27,11,20,20.00
2016,08,27,11,21,20.00
2016,08,27,11,22,20.00
2016,08,27,11,23,20.00
2016,08,27,11,24,20.00
2016,08,27,11,25,20.00
2016,08,27,11,26,20.10
2016,08,27,11,27,20.10
2016,08,27,11,28,20.10
2016,08,27,11,29,20.20
2016,08,27,11,30,20.30
2016,08,27,11,31,20.40
2016,08,27,11,32,20.40
2016,08,27,11,33,20.40
2016,08,27,11,34,20.50
2016,08,27,11,35,20.50
2016,08,27,11,36,20.50
2016,08,27,11,37,20.50
2016,08,27,11,38,20.50
2016,08,27,11,39,20.50
2016,08,27,11,40,20.50
2016,08,27,11,41,20.60
2016,08,27,11,42,20.60
2016,08,27,11,43,20.60
2016,08,27,11,44,20.60
2016,08,27,11,45,20.60
2016,08,27,11,46,20.60
2016,08,27,11,47,20.60
2016,08,27,11,48,20.60
2016,08,27,11,49,20.70
2016,08,27,11,50,20.70
2016,08,27,11,51,20.70
2016,08,27,11,52,20.70
2016,08,27,11,53,20.60
2016,08,27,11,54,20.60
2016,08,27,11,55,20.70
2016,08,27,11,56,20.70
2016,08,27,11,57,20.70
2016,08,27,11,58,20.70
2016,08,27,11,59,20.70
2016,08,27,12,00,20.70
2016,08,27,12,01,20.70
2016,08,27,12,02,20.70
2016,08,27,12,03,20.80
2016,08,27,12,04,20.80
2016,08,27,12,05,20.80
2016,08,27,12,06,20.80
2016,08,27,12,07,20.80
2016,08,27,12,08,20.80
2016,08,27,12,09,20.90
2016,08,27,12,10,20.80
2016,08,27,12,11,20.80
2016,08,27,12,12,20.80
2016,08,27,12,13,20.80
2016,08,27,12,14,20.80
2016,08,27,12,15,20.70
2016,08,27,12,16,20.60
2016,08,27,12,17,20.50
2016,08,27,12,18,20.50
2016,08,27,12,19,20.50
2016,08,27,12,20,20.40
2016,08,27,12,21,20.40
2016,08,27,12,22,20.30
2016,08,27,12,23,20.30
2016,08,27,12,24,20.30
2016,08,27,12,25,20.30
2016,08,27,12,26,20.30
2016,08,27,12,27,20.30
2016,08,27,12,28,20.30
2016,08,27,12,29,20.30
2016,08,27,12,30,20.30
2016,08,27,12,31,20.30
2016,08,27,12,32,20.20
2016,08,27,12,33,20.10
2016,08,27,12,34,20.00
2016,08,27,12,35,20.00
2016,08,27,12,36,20.00
2016,08,27,12,37,20.00
2016,08,27,12,38,19.90
2016,08,27,12,39,20.00
2016,08,27,12,40,20.00
2016,08,27,12,41,20.10
2016,08,27,12,42,20.20
2016,08,27,12,43,20.30
2016,08,27,12,44,20.40
2016,08,27,12,45,20.50
2016,08,27,12,46,20.50
2016,08,27,12,47,20.50
2016,08,27,12,48,20.60
2016,08,27,12,49,20.60
2016,08,27,12,50,20.70
2016,08,27,12,51,20.80
2016,08,27,12,52,20.80
2016,08,27,12,53,20.90
2016,08,27,12,54,20.90
2016,08,27,12,55,20.90
2016,08,27,12,56,21.00
2016,08,27,12,57,21.00
2016,08,27,12,58,20.90
2016,08,27,12,59,20.90
2016,08,27,13,00,20.80
2016,08,27,13,01,20.70
2016,08,27,13,02,20.60
2016,08,27,13,03,20.60
2016,08,27,13,04,20.60
2016,08,27,13,05,20.60
2016,08,27,13,06,20.50
2016,08,27,13,07,20.50
2016,08,27,13,08,20.50
2016,08,27,13,09,20.50
2016,08,27,13,10,20.40
2016,08,27,13,11,20.40
2016,08,27,13,12,20.40
2016,08,27,13,13,20.30
2016,08,27,13,14,20.30
2016,08,27,13,15,20.30
2016,08,27,13,16,20.30
2016,08,27,13,17,20.30
2016,08,27,13,18,20.30
2016,08,27,13,19,20.30
2016,08,27,13,20,20.30
2016,08,27,13,21,20.40
2016,08,27,13,22,20.40
2016,08,27,13,23,20.40
2016,08,27,13,24,20.50
2016,08,27,13,25,20.60
2016,08,27,13,26,20.60
2016,08,27,13,27,20.70
2016,08,27,13,28,20.70
2016,08,27,13,29,20.80
2016,08,27,13,30,20.90
2016,08,27,13,31,21.00
2016,08,27,13,32,21.10
2016,08,27,13,33,21.20
2016,08,27,13,34,21.30
2016,08,27,13,35,21.30
2016,08,27,13,36,21.40
2016,08,27,13,37,21.40
2016,08,27,13,38,21.50
2016,08,27,13,39,21.60
2016,08,27,13,40,21.60
2016,08,27,13,41,21.70
2016,08,27,13,42,21.60
2016,08,27,13,43,21.60
2016,08,27,13,44,21.50
2016,08,27,13,45,21.50
2016,08,27,13,46,21.50
2016,08,27,13,47,21.50
2016,08,27,13,48,21.40
2016,08,27,13,49,21.40
2016,08,27,13,50,21.30
2016,08,27,13,51,21.30
2016,08,27,13,52,21.30
2016,08,27,13,53,21.30
2016,08,27,13,54,21.30
2016,08,27,13,55,21.30
2016,08,27,13,56,21.30
2016,08,27,13,57,21.30
2016,08,27,13,58,21.20
2016,08,27,13,59,21.20
2016,08,27,14,00,21.20
2016,08,27,14,01,21.20
2016,08,27,14,02,21.10
2016,08,27,14,03,21.10
2016,08,27,14,04,21.10
2016,08,27,14,05,21.00
2016,08,27,14,06,21.00
2016,08,27,14,07,21.00
2016,08,27,14,08,21.00
2016,08,27,14,09,21.00
2016,08,27,14,10,21.00
2016,08,27,14,11,21.10
2016,08,27,14,12,21.10
2016,08,27,14,13,21.10
2016,08,27,14,14,21.10
2016,08,27,14,15,21.10
2016,08,27,14,16,21.10
2016,08,27,14,17,21.10
2016,08,27,14,18,21.00
2016,08,27,14,19,20.90
2016,08,27,14,20,20.90
2016,08,27,14,21,20.90
2016,08,27,14,22,20.80
2016,08,27,14,23,20.80
2016,08,27,14,24,20.80
2016,08,27,14,25,20.80
2016,08,27,14,26,20.70
2016,08,27,14,27,20.70
2016,08,27,14,28,20.70
2016,08,27,14,29,20.60
2016,08,27,14,30,20.60
2016,08,27,14,31,20.60
2016,08,27,14,32,20.60
2016,08,27,14,33,20.60
2016,08,27,14,34,20.60
2016,08,27,14,35,20.70
2016,08,27,14,36,20.60
2016,08,27,14,37,20.60
2016,08,27,14,38,20.60
2016,08,27,14,39,20.60
2016,08,27,14,40,20.60
2016,08,27,14,41,20.60
2016,08,27,14,42,20.60
2016,08,27,14,43,20.50
2016,08,27,14,44,20.60
2016,08,27,14,45,20.60
2016,08,27,14,46,20.60
2016,08,27,14,47,20.60
2016,08,27,14,48,20.60
2016,08,27,14,49,20.50
2016,08,27,14,50,20.50
2016,08,27,14,51,20.40
2016,08,27,14,52,20.30
2016,08,27,14,53,20.20
2016,08,27,14,54,20.20
2016,08,27,14,55,20.20
2016,08,27,14,56,20.20
2016,08,27,14,57,20.20
2016,08,27,14,58,20.20
2016,08,27,14,59,20.10
2016,08,27,15,00,20.10
2016,08,27,15,01,20.10
2016,08,27,15,02,20.00
2016,08,27,15,03,19.90
2016,08,27,15,04,19.90
2016,08,27,15,05,19.90
2016,08,27,15,06,19.90
2016,08,27,15,07,20.00
2016,08,27,15,08,20.00
2016,08,27,15,09,20.10
2016,08,27,15,10,20.10
2016,08,27,15,11,20.20
2016,08,27,15,12,20.30
2016,08,27,15,13,20.30
2016,08,27,15,14,20.40
2016,08,27,15,15,20.40
2016,08,27,15,16,20.40
2016,08,27,15,17,20.40
2016,08,27,15,18,20.30
2016,08,27,15,19,20.30
2016,08,27,15,20,20.20
2016,08,27,15,21,20.20
2016,08,27,15,22,20.20
2016,08,27,15,23,20.20
2016,08,27,15,24,20.10
2016,08,27,15,25,20.10
2016,08,27,15,26,20.20
2016,08,27,15,27,20.20
2016,08,27,15,28,20.20
2016,08,27,15,29,20.20
2016,08,27,15,30,20.20
2016,08,27,15,31,20.30
2016,08,27,15,32,20.30
2016,08,27,15,33,20.40
2016,08,27,15,34,20.30
2016,08,27,15,35,20.30
2016,08,27,15,36,20.30
2016,08,27,15,37,20.20
2016,08,27,15,38,20.30
2016,08,27,15,39,20.30
2016,08,27,15,40,20.40
2016,08,27,15,41,20.50
2016,08,27,15,42,20.50
2016,08,27,15,43,20.60
2016,08,27,15,44,20.60
2016,08,27,15,45,20.50
2016,08,27,15,46,20.50
2016,08,27,15,47,20.40
2016,08,27,15,48,20.40
2016,08,27,15,49,20.30
2016,08,27,15,50,20.30
2016,08,27,15,51,20.30
2016,08,27,15,52,20.30
2016,08,27,15,53,20.30
2016,08,27,15,54,20.30
2016,08,27,15,55,20.30
2016,08,27,15,56,20.30
2016,08,27,15,57,20.30
2016,08,27,15,58,20.40
2016,08,27,15,59,20.40
2016,08,27,16,00,20.40
2016,08,27,16,01,20.40
2016,08,27,16,02,20.40
2016,08,27,16,03,20.30
2016,08,27,16,04,20.30
2016,08,27,16,05,20.20
2016,08,27,16,06,20.20
2016,08,27,16,07,20.20
2016,08,27,16,08,20.20
2016,08,27,16,09,20.20
2016,08,27,16,10,20.20
2016,08,27,16,11,20.10
2016,08,27,16,12,20.10
2016,08,27,16,13,20.00
2016,08,27,16,14,20.00
2016,08,27,16,15,20.10
2016,08,27,16,16,20.10
2016,08,27,16,17,20.10
2016,08,27,16,18,20.10
2016,08,27,16,19,20.10
2016,08,27,16,20,20.10
2016,08,27,16,21,20.10
2016,08,27,16,22,20.20
2016,08,27,16,23,20.20
2016,08,27,16,24,20.20
2016,08,27,16,25,20.20
2016,08,27,16,26,20.20
2016,08,27,16,27,20.20
2016,08,27,16,28,20.10
2016,08,27,16,29,20.10
2016,08,27,16,30,20.00
2016,08,27,16,31,20.00
2016,08,27,16,32,20.00
2016,08,27,16,33,20.00
2016,08,27,16,34,19.90
2016,08,27,16,35,19.90
2016,08,27,16,36,19.90
2016,08,27,16,37,19.90
2016,08,27,16,38,19.90
2016,08,27,16,39,19.90
2016,08,27,16,40,19.90
2016,08,27,16,41,19.90
2016,08,27,16,42,19.90
2016,08,27,16,43,19.90
2016,08,27,16,44,19.90
2016,08,27,16,45,19.90
2016,08,27,16,46,19.90
2016,08,27,16,47,19.90
2016,08,27,16,48,19.90
2016,08,27,16,49,19.90
2016,08,27,16,50,20.00
2016,08,27,16,51,20.00
2016,08,27,16,52,20.00
2016,08,27,16,53,20.00
2016,08,27,16,54,19.90
2016,08,27,16,55,19.90
2016,08,27,16,56,19.90
2016,08,27,16,57,19.90
2016,08,27,16,58,19.90
2016,08,27,16,59,19.90
2016,08,27,17,00,19.90
2016,08,27,17,01,19.90
2016,08,27,17,02,19.90
2016,08,27,17,03,19.90
2016,08,27,17,04,19.80
2016,08,27,17,05,19.80
2016,08,27,17,06,19.70
2016,08,27,17,07,19.70
2016,08,27,17,08,19.70
2016,08,27,17,09,19.70
2016,08,27,17,10,19.70
2016,08,27,17,11,19.70
2016,08,27,17,12,19.70
2016,08,27,17,13,19.70
2016,08,27,17,14,19.70
2016,08,27,17,15,19.80
2016,08,27,17,16,19.80
2016,08,27,17,17,19.80
2016,08,27,17,18,19.80
2016,08,27,17,19,19.80